GW6587 Weather Reports


time (UTC)temp
F
wind
direction
speed
knots
gust
knots
rain 1hr
in
rain 24hr
in
rain mn
in
humidity
%
barometer
mb
20260906214440 90 125 2.6 5.2 0.00 0.00 0.00 31 1017.8
20260906213939 91 153 1.7 5.2 0.00 0.00 0.00 30 1018.0
20260906213434 91 97 2.6 8.7 0.00 0.00 0.00 30 1018.0
20260906212932 91 121 2.6 5.2 0.00 0.00 0.00 30 1018.0
20260906212427 90 162 2.6 7.0 0.00 0.00 0.00 29 1018.2
20260906211927 91 144 3.5 8.7 0.00 0.00 0.00 30 1018.1
20260906211422 91 140 2.6 4.3 0.00 0.00 0.00 30 1018.2
20260906210916 90 146 3.5 7.0 0.00 0.00 0.00 30 1018.2
20260906210413 90 144 5.2 7.8 0.00 0.00 0.00 30 1018.6
20260906205907 90 126 2.6 7.8 0.00 0.00 0.00 31 1018.5
20260906205403 90 140 2.6 5.2 0.00 0.00 0.00 32 1018.5
20260906204858 90 132 1.7 5.2 0.00 0.00 0.00 31 1018.7
20260906204357 90 52 0.0 4.3 0.00 0.00 0.00 30 1018.7
20260906203857 91 165 2.6 6.1 0.00 0.00 0.00 29 1018.7
20260906203353 90 106 1.7 6.1 0.00 0.00 0.00 30 1018.8
20260906202850 91 188 2.6 6.1 0.00 0.00 0.00 31 1018.8
20260906202349 90 121 3.5 6.1 0.00 0.00 0.00 32 1019.0
20260906201849 91 158 7.0 7.0 0.00 0.00 0.00 30 1018.8
20260906201344 91 133 2.6 4.3 0.00 0.00 0.00 32 1019.0
20260906200840 90 69 1.7 5.2 0.00 0.00 0.00 32 1019.1
20260906200336 90 178 1.7 3.5 0.00 0.00 0.00 31 1019.2
20260906195835 90 141 2.6 5.2 0.00 0.00 0.00 30 1019.4
20260906195332 90 135 0.9 5.2 0.00 0.00 0.00 32 1019.2
20260906194828 90 152 1.7 3.5 0.00 0.00 0.00 32 1019.0
20260906194323 89 133 4.3 4.3 0.00 0.00 0.00 30 1019.2
20260906193818 89 117 1.7 6.1 0.00 0.00 0.00 31 1019.4
20260906193313 89 131 4.3 8.7 0.00 0.00 0.00 32 1019.6
20260906192804 89 173 1.7 6.1 0.00 0.00 0.00 32 1019.7
20260906192306 89 164 1.7 3.5 0.00 0.00 0.00 33 1019.7
20260906191802 88 48 0.9 3.5 0.00 0.00 0.00 32 1019.6
20260906191258 88 232 1.7 4.3 0.00 0.00 0.00 32 1019.9
20260906190757 87 120 1.7 4.3 0.00 0.00 0.00 35 1020.2
20260906190251 88 149 1.7 4.3 0.00 0.00 0.00 32 1020.0
20260906185751 87 157 0.9 3.5 0.00 0.00 0.00 34 1020.3
20260906185250 87 87 2.6 6.1 0.00 0.00 0.00 32 1020.3
20260906184745 87 156 2.6 5.2 0.00 0.00 0.00 33 1020.3
20260906184240 87 144 1.7 4.3 0.00 0.00 0.00 32 1020.3
20260906183735 87 156 1.7 2.6 0.00 0.00 0.00 34 1020.6
20260906183232 86 111 0.9 7.8 0.00 0.00 0.00 33 1020.6
20260906182731 87 124 3.5 3.5 0.00 0.00 0.00 34 1020.9
20260906182228 86 271 1.7 3.5 0.00 0.00 0.00 32 1020.7
20260906181722 86 114 0.0 3.5 0.00 0.00 0.00 32 1021.0
20260906181219 85 236 1.7 2.6 0.00 0.00 0.00 36 1021.1
20260906180719 85 356 1.7 3.5 0.00 0.00 0.00 37 1021.2
20260906180214 85 104 0.9 3.5 0.00 0.00 0.00 38 1021.3
20260906175712 84 159 1.7 2.6 0.00 0.00 0.00 36 1021.5
20260906175208 84 155 1.7 2.6 0.00 0.00 0.00 42 1021.6
20260906174706 84 19 0.0 2.6 0.00 0.00 0.00 39 1021.6
20260906174200 83 66 0.9 2.6 0.00 0.00 0.00 39 1021.7
20260906173656 82 29 2.6 2.6 0.00 0.00 0.00 40 1021.7
20260906173151 81 292 1.7 5.2 0.00 0.00 0.00 43 1021.6
20260906172650 80 320 0.9 6.1 0.00 0.00 0.00 45 1021.8
20260906172146 80 284 2.6 6.1 0.00 0.00 0.00 44 1021.8
20260906171646 80 148 1.7 2.6 0.00 0.00 0.00 44 1022.2
20260906171141 80 276 3.5 3.5 0.00 0.00 0.00 42 1022.2
20260906170637 80 297 3.5 3.5 0.00 0.00 0.00 42 1022.3
20260906170137 79 227 2.6 5.2 0.00 0.00 0.00 41 1022.3
20260906165633 79 326 3.5 6.1 0.00 0.00 0.00 45 1022.4
20260906165129 79 271 0.9 3.5 0.00 0.00 0.00 46 1022.3
20260906164627 80 293 1.7 5.2 0.00 0.00 0.00 47 1022.4
20260906164123 79 299 0.0 1.7 0.00 0.00 0.00 47 1022.3
20260906163619 78 14 1.7 3.5 0.00 0.00 0.00 47 1022.3
20260906163114 77 282 3.5 3.5 0.00 0.00 0.00 49 1022.4
20260906162611 77 159 0.0 2.6 0.00 0.00 0.00 51 1022.3
20260906162106 77 65 0.0 1.7 0.00 0.00 0.00 55 1022.4
20260906161601 76 261 0.0 3.5 0.00 0.00 0.00 54 1022.3
20260906161059 76 66 1.7 3.5 0.00 0.00 0.00 53 1022.3
20260906160558 75 261 0.0 2.6 0.00 0.00 0.00 58 1022.3
20260906160057 76 276 1.7 3.5 0.00 0.00 0.00 55 1022.4
20260906155555 76 292 0.9 3.5 0.00 0.00 0.00 56 1022.3
20260906155052 75 216 1.7 2.6 0.00 0.00 0.00 58 1022.5
20260906154547 74 110 1.7 1.7 0.00 0.00 0.00 62 1022.4
20260906154045 73 305 2.6 3.5 0.00 0.00 0.00 62 1022.4
20260906153544 72 218 1.7 4.3 0.00 0.00 0.00 64 1022.2
20260906153040 72 330 1.7 2.6 0.00 0.00 0.00 64 1022.3
20260906152539 72 276 1.7 3.5 0.00 0.00 0.00 65 1022.4
20260906152038 72 355 0.9 2.6 0.00 0.00 0.00 65 1022.4
20260906151534 71 234 1.7 3.5 0.00 0.00 0.00 66 1022.5
20260906151030 70 298 2.6 4.3 0.00 0.00 0.00 69 1022.5
20260906150525 70 288 2.6 3.5 0.00 0.00 0.00 68 1022.7
20260906150020 69 300 1.7 3.5 0.00 0.00 0.00 69 1022.4
20260906145519 69 290 1.7 3.5 0.00 0.00 0.00 71 1022.3
20260906145014 67 356 2.6 3.5 0.00 0.00 0.00 73 1022.3
20260906144508 67 287 1.7 3.5 0.00 0.00 0.00 73 1022.5
20260906144004 68 245 1.7 3.5 0.00 0.00 0.00 71 1022.3
20260906143459 69 294 3.5 3.5 0.00 0.00 0.00 70 1022.3
20260906142955 68 207 0.9 3.5 0.00 0.00 0.00 71 1022.5
20260906142454 67 207 3.5 3.5 0.00 0.00 0.00 72 1022.3
20260906141950 67 353 1.7 2.6 0.00 0.00 0.00 73 1022.5
20260906141449 66 327 0.9 4.3 0.00 0.00 0.00 73 1022.5
20260906140944 66 211 1.7 4.3 0.00 0.00 0.00 73 1022.5
20260906140439 65 350 1.7 3.5 0.00 0.00 0.00 73 1022.4
20260906135937 64 329 1.7 2.6 0.00 0.00 0.00 75 1022.4
20260906135436 63 326 2.6 5.2 0.00 0.00 0.00 76 1022.3
20260906134931 63 40 0.0 4.3 0.00 0.00 0.00 76 1022.3
20260906134427 63 252 2.6 5.2 0.00 0.00 0.00 76 1022.1
20260906133921 62 341 1.7 6.1 0.00 0.00 0.00 76 1022.1
20260906133417 62 211 0.0 2.6 0.00 0.00 0.00 77 1022.1
20260906132913 62 194 0.9 2.6 0.00 0.00 0.00 78 1021.8
20260906132408 61 116 0.0 2.6 0.00 0.00 0.00 78 1021.8
20260906131903 61 57 0.9 1.7 0.00 0.00 0.00 79 1022.1
20260906131359 61 282 0.0 1.7 0.00 0.00 0.00 79 1021.8
20260906130855 61 339 0.9 1.7 0.00 0.00 0.00 79 1021.8
20260906130354 61 331 0.0 2.6 0.00 0.00 0.00 79 1021.9
20260906125853 61 288 0.9 1.7 0.00 0.00 0.00 78 1022.1
20260906125350 61 242 0.0 1.7 0.00 0.00 0.00 78 1021.9
20260906124845 60 237 0.0 1.7 0.00 0.00 0.00 78 1021.7
20260906124341 60 86 0.0 1.7 0.00 0.00 0.00 78 1021.8
20260906123840 61 118 1.7 2.6 0.00 0.00 0.00 76 1021.8
20260906123335 61 285 0.0 2.6 0.00 0.00 0.00 76 1021.6
20260906122835 62 288 0.0 1.7 0.00 0.00 0.00 75 1021.7
20260906122330 62 250 0.0 2.6 0.00 0.00 0.00 75 1021.7
20260906121827 62 232 0.0 2.6 0.00 0.00 0.00 76 1021.7
20260906121322 62 300 0.9 2.6 0.00 0.00 0.00 74 1021.6
20260906120818 62 247 0.0 3.5 0.00 0.00 0.00 74 1021.5
20260906120314 61 336 0.0 2.6 0.00 0.00 0.00 74 1021.5
20260906115810 61 60 0.0 0.0 0.00 0.00 0.00 73 1021.7
20260906115306 61 82 0.0 0.9 0.00 0.00 0.00 72 1021.7
20260906114804 62 299 0.0 1.7 0.00 0.00 0.00 70 1021.7
20260906114300 62 239 0.9 1.7 0.00 0.00 0.00 70 1021.5
20260906113755 62 71 0.9 0.9 0.00 0.00 0.00 69 1021.7
20260906113254 62 110 0.0 0.9 0.00 0.00 0.00 69 1021.6
20260906112755 62 232 0.0 0.9 0.00 0.00 0.00 69 1021.5
20260906112251 62 308 0.0 1.7 0.00 0.00 0.00 69 1021.6
20260906111750 62 119 0.0 0.9 0.00 0.00 0.00 68 1021.5
20260906111249 62 348 0.0 0.9 0.00 0.00 0.00 68 1021.5
20260906110745 62 22 0.0 0.9 0.00 0.00 0.00 67 1021.5
20260906110241 62 322 0.0 0.9 0.00 0.00 0.00 67 1021.6
20260906105740 62 59 0.9 1.7 0.00 0.00 0.00 67 1021.3
20260906105236 62 333 0.0 1.7 0.00 0.00 0.00 67 1021.3
20260906104731 62 110 1.7 2.6 0.00 0.00 0.00 67 1021.5
20260906104230 62 124 1.7 2.6 0.00 0.00 0.00 68 1021.3
20260906103727 62 129 0.0 0.0 0.00 0.00 0.00 67 1021.2
20260906103222 63 80 0.0 1.7 0.00 0.00 0.00 66 1021.1
20260906102718 63 106 1.7 2.6 0.00 0.00 0.00 66 1021.1
20260906102217 63 106 1.7 1.7 0.00 0.00 0.00 66 1021.2
20260906101712 64 77 0.0 0.9 0.00 0.00 0.00 65 1021.2
20260906101207 64 44 0.0 0.0 0.00 0.00 0.00 65 1021.2
20260906100703 64 82 1.7 1.7 0.00 0.00 0.00 65 1021.1
20260906100202 64 113 0.0 0.9 0.00 0.00 0.00 65 1021.2
20260906095657 64 212 1.7 1.7 0.00 0.00 0.00 65 1021.1
20260906095153 64 55 0.0 0.0 0.00 0.00 0.00 65 1021.1
20260906094651 64 336 0.0 0.9 0.00 0.00 0.00 66 1021.0
20260906094147 64 82 0.0 0.9 0.00 0.00 0.00 66 1021.0
20260906093643 64 19 0.0 0.9 0.00 0.00 0.00 66 1021.2
20260906093144 64 100 1.7 1.7 0.00 0.00 0.00 65 1020.9
20260906092638 65 58 1.7 1.7 0.00 0.00 0.00 64 1021.2
20260906092132 65 126 0.0 1.7 0.00 0.00 0.00 63 1021.0
20260906091629 65 38 0.0 0.0 0.00 0.00 0.00 63 1021.0
20260906091125 65 89 0.0 0.9 0.00 0.00 0.00 62 1021.0
20260906090620 66 91 0.9 1.7 0.00 0.00 0.00 61 1021.0
20260906090120 66 60 0.9 1.7 0.00 0.00 0.00 61 1021.1
20260906085619 66 96 1.7 1.7 0.00 0.00 0.00 61 1020.9
20260906085114 66 115 1.7 1.7 0.00 0.00 0.00 61 1020.6
20260906084608 66 110 1.7 1.7 0.00 0.00 0.00 61 1021.1
20260906084107 66 112 0.9 1.7 0.00 0.00 0.00 61 1021.0
20260906083603 66 135 0.9 1.7 0.00 0.00 0.00 61 1020.9
20260906083103 67 98 0.9 1.7 0.00 0.00 0.00 60 1020.9
20260906082558 67 75 0.9 1.7 0.00 0.00 0.00 58 1021.2
20260906082054 67 88 1.7 1.7 0.00 0.00 0.00 58 1021.2
20260906081549 67 106 0.9 1.7 0.00 0.00 0.00 58 1021.2
20260906081045 67 202 0.0 1.7 0.00 0.00 0.00 58 1021.2
20260906080541 67 108 0.9 1.7 0.00 0.00 0.00 57 1021.2
20260906080038 68 39 0.0 0.9 0.00 0.00 0.00 56 1021.3
20260906075537 68 322 0.0 0.9 0.00 0.00 0.00 56 1021.1
20260906075032 68 230 0.0 1.7 0.00 0.00 0.00 55 1021.3
20260906074527 68 313 0.0 0.9 0.00 0.00 0.00 55 1021.2
20260906074025 69 57 0.0 1.7 0.00 0.00 0.00 54 1021.0
20260906073520 69 282 1.7 1.7 0.00 0.00 0.00 54 1021.2
20260906073016 69 129 0.0 1.7 0.00 0.00 0.00 54 1021.1
20260906072511 69 209 0.9 1.7 0.00 0.00 0.00 52 1020.6
20260906072007 70 191 0.0 1.7 0.00 0.00 0.00 52 1020.9
20260906071503 70 319 0.0 1.7 0.00 0.00 0.00 51 1020.7
20260906070958 71 158 0.0 1.7 0.00 0.00 0.00 50 1020.6
20260906070454 71 226 0.0 2.6 0.00 0.00 0.00 50 1020.6
20260906065950 71 203 0.9 1.7 0.00 0.00 0.00 49 1020.6
20260906065449 71 335 0.0 2.6 0.00 0.00 0.00 48 1020.6
20260906064945 72 252 1.7 2.6 0.00 0.00 0.00 47 1020.5
20260906064441 71 331 0.0 2.6 0.00 0.00 0.00 50 1020.6
20260906063935 71 212 0.0 0.9 0.00 0.00 0.00 53 1020.4
20260906063431 72 206 0.9 2.6 0.00 0.00 0.00 52 1020.3
20260906062926 72 243 0.0 0.9 0.00 0.00 0.00 50 1020.4
20260906062426 72 98 0.0 3.5 0.00 0.00 0.00 49 1020.3
20260906061921 72 288 1.7 1.7 0.00 0.00 0.00 49 1020.3
20260906061418 72 279 0.0 4.3 0.00 0.00 0.00 50 1020.5
20260906060918 71 52 0.0 3.5 0.00 0.00 0.00 50 1020.7
20260906060415 72 331 1.7 3.5 0.00 0.00 0.00 50 1021.0
20260906055911 72 289 3.5 7.0 0.02 0.00 0.00 48 1021.1
20260906055407 72 306 3.5 7.8 0.02 0.00 0.00 50 1021.3
20260906054902 73 316 4.3 5.2 0.00 0.00 0.00 49 1021.5
20260906054356 74 221 1.7 1.7 0.00 0.00 0.00 46 1021.1
20260906053853 75 59 0.0 0.9 0.00 0.00 0.00 41 1020.9
20260906053348 75 353 0.0 1.7 0.00 0.00 0.00 39 1020.9
20260906052844 75 345 0.9 3.5 0.00 0.00 0.00 38 1021.0
20260906052340 75 356 0.9 0.9 0.00 0.00 0.00 38 1021.0
20260906051837 74 260 0.0 1.7 0.00 0.00 0.00 39 1021.1
20260906051336 74 4 0.0 1.7 0.00 0.00 0.00 39 1021.2
20260906050832 74 166 0.0 0.9 0.00 0.00 0.00 39 1021.1
20260906050327 74 168 0.9 0.9 0.00 0.00 0.00 38 1021.2
20260906045826 74 62 0.0 0.0 0.00 0.00 0.00 38 1021.5
20260906045320 74 287 0.0 0.9 0.00 0.00 0.00 38 1021.2
20260906044816 75 63 0.0 0.9 0.00 0.00 0.00 36 1021.1
20260906044311 75 150 0.0 1.7 0.00 0.00 0.00 36 1021.2
20260906043807 75 249 0.9 1.7 0.00 0.00 0.00 36 1021.3
20260906043303 75 343 0.0 1.7 0.00 0.00 0.00 36 1021.3
20260906042803 75 217 0.0 0.9 0.00 0.00 0.00 37 1021.3
20260906042306 75 37 0.0 0.0 0.00 0.00 0.00 36 1021.2
20260906041757 75 173 0.0 0.9 0.00 0.00 0.00 35 1021.6
20260906041252 76 119 0.9 1.7 0.00 0.00 0.00 35 1021.3
20260906040748 76 50 0.0 3.5 0.00 0.00 0.00 34 1021.1
20260906040243 76 137 3.5 3.5 0.00 0.00 0.00 34 1021.2
20260906035738 76 115 1.7 4.3 0.00 0.00 0.00 34 1021.2
20260906035234 76 99 0.9 3.5 0.00 0.00 0.00 35 1021.1
20260906034734 76 138 1.7 4.3 0.00 0.00 0.00 35 1021.2
20260906034229 75 114 1.7 4.3 0.00 0.00 0.00 35 1021.0
20260906033725 76 127 1.7 3.5 0.00 0.00 0.00 34 1020.9
20260906033224 76 80 1.7 2.6 0.00 0.00 0.00 33 1020.7
20260906032721 77 76 0.0 3.5 0.00 0.00 0.00 32 1020.5
20260906032221 77 61 1.7 1.7 0.00 0.00 0.00 32 1020.3
20260906031716 77 85 0.9 3.5 0.00 0.00 0.00 32 1020.5
20260906031212 78 41 2.6 2.6 0.00 0.00 0.00 32 1020.3
20260906030711 78 70 1.7 4.3 0.00 0.00 0.00 31 1020.3
20260906030207 78 294 1.7 1.7 0.00 0.00 0.00 31 1020.2
20260906025706 78 264 0.0 1.7 0.00 0.00 0.00 30 1020.3
20260906025206 79 38 0.0 1.7 0.00 0.00 0.00 30 1019.9
20260906024659 79 54 2.6 5.2 0.00 0.00 0.00 29 1020.2
20260906024159 80 268 0.9 1.7 0.00 0.00 0.00 29 1019.9
20260906023655 80 296 0.0 2.6 0.00 0.00 0.00 28 1020.2
20260906023155 80 327 1.7 3.5 0.00 0.00 0.00 28 1019.8
20260906022650 81 44 0.9 2.6 0.00 0.00 0.00 28 1020.0
20260906022146 81 283 2.6 3.5 0.00 0.00 0.00 27 1019.8
20260906021641 81 258 0.0 2.6 0.00 0.00 0.00 27 1019.9
20260906021140 82 269 0.0 2.6 0.00 0.00 0.00 26 1019.7
20260906020635 82 121 0.0 3.5 0.00 0.00 0.00 27 1019.7
20260906020130 82 295 0.9 1.7 0.00 0.00 0.00 29 1019.6
20260906015630 82 89 0.0 0.9 0.00 0.00 0.00 29 1019.2
20260906015129 82 162 0.9 1.7 0.00 0.00 0.00 28 1019.4
20260906014629 83 157 0.9 1.7 0.00 0.00 0.00 28 1019.2
20260906014125 83 282 0.0 0.9 0.00 0.00 0.00 28 1019.0
20260906013620 83 322 0.0 0.0 0.00 0.00 0.00 27 1018.8
20260906013116 84 343 0.0 0.9 0.00 0.00 0.00 27 1018.8
20260906012611 84 154 0.0 0.0 0.00 0.00 0.00 27 1018.7
20260906012110 84 84 0.9 1.7 0.00 0.00 0.00 27 1018.8
20260906011607 85 224 0.0 1.7 0.00 0.00 0.00 26 1018.8
20260906011107 85 182 0.0 2.6 0.00 0.00 0.00 26 1018.8
20260906010602 86 65 1.7 3.5 0.00 0.00 0.00 26 1019.0
20260906010058 86 252 1.7 3.5 0.00 0.00 0.00 25 1018.7
20260906005557 87 82 0.0 3.5 0.00 0.00 0.00 25 1018.8
20260906005057 87 198 1.7 2.6 0.00 0.00 0.00 24 1018.8
20260906004556 87 133 3.5 4.3 0.00 0.00 0.00 24 1018.8
20260906004051 88 66 2.6 4.3 0.00 0.00 0.00 23 1019.0
20260906003546 89 118 0.9 2.6 0.00 0.00 0.00 21 1018.8
20260906003042 90 173 2.6 2.6 0.00 0.00 0.00 20 1019.0
20260906002537 91 150 0.9 1.7 0.00 0.00 0.00 20 1018.6
20260906002032 91 142 1.7 3.5 0.00 0.00 0.00 20 1018.8
20260906001527 92 133 3.5 3.5 0.00 0.00 0.00 19 1018.6
20260906001021 93 168 1.7 3.5 0.00 0.00 0.00 19 1018.8
20260906000517 94 87 1.7 1.7 0.00 0.00 0.00 19 1018.7
20260906000012 93 181 0.0 3.5 0.00 0.00 0.00 19 1018.6
20260905235505 93 265 0.0 6.1 0.00 0.00 0.00 19 1018.6
20260905235000 93 177 1.7 3.5 0.00 0.00 0.00 18 1018.8
20260905234456 93 253 0.9 2.6 0.00 0.00 0.00 19 1018.7
20260905233955 93 307 0.9 3.5 0.00 0.00 0.00 19 1018.8
20260905233452 94 298 3.5 4.3 0.00 0.00 0.00 18 1019.0
20260905232950 94 168 3.5 3.5 0.00 0.00 0.00 18 1018.7
20260905232447 94 147 2.6 4.3 0.00 0.00 0.00 18 1018.7
20260905231943 94 42 0.0 1.7 0.00 0.00 0.00 19 1018.6
20260905231438 94 26 0.9 3.5 0.00 0.00 0.00 18 1018.7
20260905230934 94 246 1.7 2.6 0.00 0.00 0.00 19 1018.5
20260905230432 94 162 0.0 1.7 0.00 0.00 0.00 18 1018.7
20260905225931 94 240 0.0 3.5 0.00 0.00 0.00 18 1018.6
20260905225426 95 284 2.6 3.5 0.00 0.00 0.00 17 1018.4
20260905224921 95 89 0.0 2.6 0.00 0.00 0.00 19 1018.6
20260905224417 95 146 0.0 2.6 0.00 0.00 0.00 18 1018.7
20260905223916 95 302 3.5 3.5 0.00 0.00 0.00 18 1018.5
20260905223415 95 150 1.7 3.5 0.00 0.00 0.00 18 1018.5
20260905222914 95 253 0.0 2.6 0.00 0.00 0.00 17 1018.6
20260905222414 94 56 0.0 2.6 0.00 0.00 0.00 18 1018.6
20260905221909 93 180 0.0 2.6 0.00 0.00 0.00 23 1018.7
20260905221406 91 170 1.7 3.5 0.00 0.00 0.00 21 1018.7
20260905220902 91 134 1.7 4.3 0.00 0.00 0.00 20 1018.4
20260905220358 91 321 0.0 1.7 0.00 0.00 0.00 20 1018.5
20260905215857 92 157 2.6 4.3 0.00 0.00 0.00 19 1018.8
20260905215353 93 195 1.7 4.3 0.00 0.00 0.00 18 1019.0
20260905214849 96 190 1.7 5.2 0.00 0.00 0.00 18 1019.0